English version Home page |
Updated on December 16, 2022 |
|
軌道要素Epoch 2021 July 5.0 TT = JDT 2459400.5 T 2020 July 20.27725 TT Rudenko q 2.8720471 (2000.0) P Q n 0.10237458 Peri. 323.24539 +0.86993635 -0.23093082 a 4.5255840 Node 56.02636 +0.47365129 +0.63732941 e 0.3653754 Incl. 31.69864 -0.13735069 +0.73517493 P 9.63 From 98 observations 2020 Dec. 1-21, mean residual 0".5.
|
光度変化m1 = 12.0 + 5 logΔ + 10.0 log r
|
軌道要素はM.P.E.C. 2021-P47に掲載されたものです。
|